Middle Georgia Regional Airport Airport (MCN)

 

Airport Diagram
Current Weather/Forecast (VFR Conditions)
METAR KMCN 260353Z AUTO 08007KT 10SM FEW031 23/20 A3004 RMK AO2 SLP168 T02280200
TAF KMCN 252339Z 2600/2624 09010KT P6SM VCSH SCT030 BKN050 FM260600 08005KT P6SM BKN018 FM261000 07007KT P6SM VCSH OVC007 FM261600 08010KT 6SM -SHRA SCT008 OVC015 PROB30 2618/2624 4SM TSRA OVC009CB

All Charts
General
Chart Name Download
AIRPORT DIAGRAM
TAKEOFF MINIMUMS
ALTERNATE MINIMUMS

Approaches
Chart Name Download
ILS OR LOC RWY 05
ILS RWY 05 (SA CAT I - II)
RNAV (GPS) RWY 05
RNAV (GPS) RWY 14
RNAV (GPS) RWY 23
RNAV (GPS) RWY 32
VOR RWY 14
VOR RWY 23


Inbound Traffic (Arrivals)

No inbound traffic.


Outbound Traffic (Departures)

No outbound traffic.